Flag for Germany Weather past 2 weeks in Geretsried, Bavaria, Germany

Now
41 °F

Clear.


Feels Like: 38 °F
Forecast: 36 / 52 °F
Wind: 5 mph from West

Location: Oberpfaffenhofen

Current Time: Mar 27, 2015 at 10:14:33 PM

Latest Report: Mar 27, 2015 at 7:50 PM


Visibility: 10 mi

Pressure: 30.15 "Hg

Humidity: 66%

Dew point: 30 °F

Location of GeretsriedLocation

Historic Weather in Geretsried — Graph

°F

Geretsried temperature yesterday

Maximum temperature yesterday: 43 °F (at 11:50 AM)
Minimum temperature yesterday: 41 °F (at 6:50 AM)
Average temperature yesterday: 41 °F

Past Weeks' High & Low Weather Summary

 TemperatureHumidityPressure
High63 °F (Mar 17, 12:50 PM)100% (Mar 24, 6:50 AM)30.27 "Hg (Mar 24, 6:50 AM)
Low25 °F (Mar 13, 6:50 AM)24% (Mar 17, 1:20 PM)29.53 "Hg (Mar 25, 1:50 PM)
Average46 °F60%30.02 "Hg
* Reported Mar 12 7:20 PM — Mar 27 7:50 PM, Geretsried, Weather by CustomWeather, © 2015

Note: Actual official high and low records may vary slightly from our data, if they occured in-between our weather recording intervals... More about our weather records

Advertising

Geretsried weather history for previous 24 hours

 ConditionsComfort  
Time TempWeatherWind HumidityBarometerVisibility
7:50 PM
Fri, Mar 27
41 °FClear.5 mph66%30.15 "Hg10 mi
7:20 PM43 °FClear.5 mph57%30.15 "Hg10 mi
6:50 PM41 °FClear.6 mph61%30.12 "Hg10 mi
6:20 PM43 °FSunny.7 mph57%30.12 "Hg10 mi
5:50 PM45 °FSunny.8 mph49%30.12 "Hg10 mi
5:20 PM45 °FPassing clouds.8 mph53%30.09 "HgN/A
4:50 PM45 °FSunny.14 mph49%30.09 "Hg10 mi
4:20 PM45 °FSunny.16 mph49%30.07 "Hg10 mi
3:50 PM46 °FPartly sunny.16 mph46%30.07 "HgN/A
3:20 PM46 °FSunny.16 mph50%30.07 "Hg10 mi
2:50 PM45 °FScattered clouds.16 mph49%30.07 "HgN/A
2:20 PM46 °FScattered clouds.16 mph50%30.04 "HgN/A
1:50 PM46 °FScattered clouds.18 mph46%30.04 "HgN/A
1:20 PM45 °FPartly sunny.16 mph57%30.04 "HgN/A
12:50 PM45 °FPartly sunny.12 mph61%30.04 "HgN/A
12:20 PM43 °FLight rain. Partly sunny.10 mph66%30.04 "HgN/A
11:50 AM45 °FScattered clouds.15 mph61%30.04 "HgN/A
11:20 AM43 °FScattered clouds.14 mph66%30.04 "HgN/A
10:50 AM45 °FScattered clouds.13 mph76%30.04 "HgN/A
10:20 AM43 °FScattered clouds.12 mph76%30.04 "HgN/A
9:50 AM39 °FScattered clouds.13 mph87%30.01 "HgN/A
9:20 AM39 °FSprinkles. Partly sunny.13 mph87%30.01 "HgN/A
8:50 AM39 °FSprinkles. Broken clouds.13 mph87%30.01 "HgN/A
8:20 AM39 °FBroken clouds.12 mph87%29.98 "HgN/A
7:50 AM39 °FPartly sunny.12 mph81%29.98 "HgN/A
7:20 AM39 °FPartly sunny.12 mph81%29.98 "HgN/A
6:50 AM37 °FPartly sunny.13 mph93%29.95 "HgN/A
Weather by CustomWeather, © 2015

See weather overviewHow to use our weather pages